Missouri River (Missouri), Glasgow (06906500)

StateMissouriLatestUnknown (58100 cfs)
RiverMissouri RiverRatingObservedEstimated
Updated2026-05-05 9:30 (1 hour ago)Flood - The river is flooding. Obstacles can be treacherous or deadly. The river should be avoided at this stage for casual trips and definitely for the inexperienced. Trips should be attempted only with protective gear and equipment.Flood(none)(none)
Discharge58100 cfs (median: 86000 cfs)High - The river is high and potentially dangerous, especially for the young and / or inexperienced. Normal stream obstacles are sometimes difficult to navigate. Extended distances can be attempted, but canoe travel may not be advisable.High(none)(none)
Height13.97 feetGood - Conditions are ideal for a canoe or kayak. Boats typically will drag on fewer than one-quarter of riffles, if at all, and portages are unnecessary or rare. Normal float lengths can be attempted without a problem.Good(none)(none)
TrendFalling (falling over 24 hours)Low - River is low but can still be floated. Some riffles are okay but most come with significant dragging and might need a portage. Float lengths should be reduced to accommodate low flow, dragging, and portages.Low(none)(none)
USGSExternal icon USGS Site (External icon Duck Duck Go Maps)Poor - River is too low to float comfortably. Most or all riffles will drag or must be portaged and some obstacles (such as slick shelf rock) cause undue problems. Avoid the river at this stage for casual paddling trips.Poor(none)(none)

Trending Data

Plot Image

Trips for Missouri River (Missouri), Glasgow (06906500)

DateStartEndDistanceConditionDischargeHeightFishingDetails

A total of 0 rows are displayed.

Condition Descriptions

Fishing Conditions

Fish Species

Notes

Classic Trip List

The classic River Trips application is still available for use. It is updated with the new system using a data retrofit. It is no longer maintained. The original River Trips application is no longer updated (as of 1 Dec 2016) but can be checked for errors or for the condition of the data before it was converted to the new system.

Gauge Data Table

ObservationHeightDischargeMaximum
Discharge
Minimum
Discharge
Mean
Discharge
P05P10P20P25P50
(Median)
P75P80P90P95
2026-05-05 09:30 13.97 58100 187000 (2019) 39400 (2023) 87600 40100 42600 48300 50300 86000 108000 110000 159000 181000
2026-05-05 08:30 13.99 58300 187000 (2019) 39400 (2023) 87600 40100 42600 48300 50300 86000 108000 110000 159000 181000
2026-05-05 07:30 14.01 58400 187000 (2019) 39400 (2023) 87600 40100 42600 48300 50300 86000 108000 110000 159000 181000
2026-05-05 06:30 14.03 58500 187000 (2019) 39400 (2023) 87600 40100 42600 48300 50300 86000 108000 110000 159000 181000
2026-05-05 05:30 13.99 58300 187000 (2019) 39400 (2023) 87600 40100 42600 48300 50300 86000 108000 110000 159000 181000
2026-05-05 04:30 14.03 58500 187000 (2019) 39400 (2023) 87600 40100 42600 48300 50300 86000 108000 110000 159000 181000
2026-05-05 03:30 14.05 58600 187000 (2019) 39400 (2023) 87600 40100 42600 48300 50300 86000 108000 110000 159000 181000
2026-05-05 02:30 14.05 58600 187000 (2019) 39400 (2023) 87600 40100 42600 48300 50300 86000 108000 110000 159000 181000
2026-05-05 01:30 14.09 58900 187000 (2019) 39400 (2023) 87600 40100 42600 48300 50300 86000 108000 110000 159000 181000
2026-05-05 00:30 14.09 58900 187000 (2019) 39400 (2023) 87600 40100 42600 48300 50300 86000 108000 110000 159000 181000
2026-05-04 23:30 14.04 58600 187000 (2019) 39400 (2023) 87600 40100 42600 48300 50300 86000 108000 110000 159000 181000
2026-05-04 22:30 14.08 58800 233000 (2019) 39700 (2023) 91200 40600 43600 48300 49500 85300 108000 136000 166000 217000
2026-05-04 21:30 14.13 59100 233000 (2019) 39700 (2023) 91200 40600 43600 48300 49500 85300 108000 136000 166000 217000
2026-05-04 20:30 14.13 59100 233000 (2019) 39700 (2023) 91200 40600 43600 48300 49500 85300 108000 136000 166000 217000
2026-05-04 19:30 14.16 59300 233000 (2019) 39700 (2023) 91200 40600 43600 48300 49500 85300 108000 136000 166000 217000
2026-05-04 18:30 14.16 59300 233000 (2019) 39700 (2023) 91200 40600 43600 48300 49500 85300 108000 136000 166000 217000
2026-05-04 17:30 14.18 59500 233000 (2019) 39700 (2023) 91200 40600 43600 48300 49500 85300 108000 136000 166000 217000
2026-05-04 16:30 14.21 59700 233000 (2019) 39700 (2023) 91200 40600 43600 48300 49500 85300 108000 136000 166000 217000
2026-05-04 15:30 14.22 59700 233000 (2019) 39700 (2023) 91200 40600 43600 48300 49500 85300 108000 136000 166000 217000
2026-05-04 14:30 14.26 60000 233000 (2019) 39700 (2023) 91200 40600 43600 48300 49500 85300 108000 136000 166000 217000
2026-05-04 13:30 14.29 60200 233000 (2019) 39700 (2023) 91200 40600 43600 48300 49500 85300 108000 136000 166000 217000
2026-05-04 12:30 14.33 60400 233000 (2019) 39700 (2023) 91200 40600 43600 48300 49500 85300 108000 136000 166000 217000
2026-05-04 11:30 14.35 60600 233000 (2019) 39700 (2023) 91200 40600 43600 48300 49500 85300 108000 136000 166000 217000
2026-05-04 10:30 14.38 60800 233000 (2019) 39700 (2023) 91200 40600 43600 48300 49500 85300 108000 136000 166000 217000
2026-05-04 09:30 14.40 60900 233000 (2019) 39700 (2023) 91200 40600 43600 48300 49500 85300 108000 136000 166000 217000
2026-05-04 08:30 14.43 61100 233000 (2019) 39700 (2023) 91200 40600 43600 48300 49500 85300 108000 136000 166000 217000
2026-05-04 07:30 14.51 61600 233000 (2019) 39700 (2023) 91200 40600 43600 48300 49500 85300 108000 136000 166000 217000
2026-05-04 06:30 14.52 61700 233000 (2019) 39700 (2023) 91200 40600 43600 48300 49500 85300 108000 136000 166000 217000
2026-05-04 05:30 14.59 62100 233000 (2019) 39700 (2023) 91200 40600 43600 48300 49500 85300 108000 136000 166000 217000
2026-05-04 04:30 14.60 62200 233000 (2019) 39700 (2023) 91200 40600 43600 48300 49500 85300 108000 136000 166000 217000
2026-05-04 03:30 14.65 62500 233000 (2019) 39700 (2023) 91200 40600 43600 48300 49500 85300 108000 136000 166000 217000
2026-05-04 02:30 14.70 62900 233000 (2019) 39700 (2023) 91200 40600 43600 48300 49500 85300 108000 136000 166000 217000
2026-05-04 01:30 14.71 62900 233000 (2019) 39700 (2023) 91200 40600 43600 48300 49500 85300 108000 136000 166000 217000
2026-05-04 00:30 14.75 63200 233000 (2019) 39700 (2023) 91200 40600 43600 48300 49500 85300 108000 136000 166000 217000
2026-05-03 23:30 14.79 63500 233000 (2019) 39700 (2023) 91200 40600 43600 48300 49500 85300 108000 136000 166000 217000
2026-05-03 22:30 14.82 63700 256000 (2019) 40100 (2023) 93400 41100 44400 46500 49700 81900 111000 142000 180000 237000
2026-05-03 21:30 14.85 63900 256000 (2019) 40100 (2023) 93400 41100 44400 46500 49700 81900 111000 142000 180000 237000
2026-05-03 20:30 14.87 64000 256000 (2019) 40100 (2023) 93400 41100 44400 46500 49700 81900 111000 142000 180000 237000
2026-05-03 19:30 14.92 64400 256000 (2019) 40100 (2023) 93400 41100 44400 46500 49700 81900 111000 142000 180000 237000
2026-05-03 18:30 14.95 64600 256000 (2019) 40100 (2023) 93400 41100 44400 46500 49700 81900 111000 142000 180000 237000
2026-05-03 17:30 14.98 64800 256000 (2019) 40100 (2023) 93400 41100 44400 46500 49700 81900 111000 142000 180000 237000
2026-05-03 16:30 14.99 64800 256000 (2019) 40100 (2023) 93400 41100 44400 46500 49700 81900 111000 142000 180000 237000
2026-05-03 15:30 15.02 65100 256000 (2019) 40100 (2023) 93400 41100 44400 46500 49700 81900 111000 142000 180000 237000
2026-05-03 14:30 15.05 65300 256000 (2019) 40100 (2023) 93400 41100 44400 46500 49700 81900 111000 142000 180000 237000
2026-05-03 13:30 15.06 65300 256000 (2019) 40100 (2023) 93400 41100 44400 46500 49700 81900 111000 142000 180000 237000
2026-05-03 12:30 15.14 65900 256000 (2019) 40100 (2023) 93400 41100 44400 46500 49700 81900 111000 142000 180000 237000
2026-05-03 11:30 15.20 66300 256000 (2019) 40100 (2023) 93400 41100 44400 46500 49700 81900 111000 142000 180000 237000
2026-05-03 10:30 15.11 65700 256000 (2019) 40100 (2023) 93400 41100 44400 46500 49700 81900 111000 142000 180000 237000
2026-05-03 09:30 15.20 66300 256000 (2019) 40100 (2023) 93400 41100 44400 46500 49700 81900 111000 142000 180000 237000
2026-05-03 08:30 15.19 66200 256000 (2019) 40100 (2023) 93400 41100 44400 46500 49700 81900 111000 142000 180000 237000
2026-05-03 07:30 15.24 66600 256000 (2019) 40100 (2023) 93400 41100 44400 46500 49700 81900 111000 142000 180000 237000
2026-05-03 06:30 15.29 66900 256000 (2019) 40100 (2023) 93400 41100 44400 46500 49700 81900 111000 142000 180000 237000
2026-05-03 05:30 15.33 67200 256000 (2019) 40100 (2023) 93400 41100 44400 46500 49700 81900 111000 142000 180000 237000
2026-05-03 04:30 15.38 67600 256000 (2019) 40100 (2023) 93400 41100 44400 46500 49700 81900 111000 142000 180000 237000
2026-05-03 03:30 15.43 67900 256000 (2019) 40100 (2023) 93400 41100 44400 46500 49700 81900 111000 142000 180000 237000
2026-05-03 02:30 15.49 68400 256000 (2019) 40100 (2023) 93400 41100 44400 46500 49700 81900 111000 142000 180000 237000
2026-05-03 01:30 15.53 68600 256000 (2019) 40100 (2023) 93400 41100 44400 46500 49700 81900 111000 142000 180000 237000
2026-05-03 00:30 15.55 68800 256000 (2019) 40100 (2023) 93400 41100 44400 46500 49700 81900 111000 142000 180000 237000
2026-05-02 23:30 15.59 69100 256000 (2019) 40100 (2023) 93400 41100 44400 46500 49700 81900 111000 142000 180000 237000
2026-05-02 22:30 15.63 69400 242000 (2019) 40800 (2023) 94000 41900 45500 49700 51700 83100 110000 143000 189000 234000
2026-05-02 21:30 15.67 69700 242000 (2019) 40800 (2023) 94000 41900 45500 49700 51700 83100 110000 143000 189000 234000
2026-05-02 20:30 15.70 69900 242000 (2019) 40800 (2023) 94000 41900 45500 49700 51700 83100 110000 143000 189000 234000
2026-05-02 19:30 15.75 70200 242000 (2019) 40800 (2023) 94000 41900 45500 49700 51700 83100 110000 143000 189000 234000
2026-05-02 18:30 15.79 70500 242000 (2019) 40800 (2023) 94000 41900 45500 49700 51700 83100 110000 143000 189000 234000
2026-05-02 17:30 15.82 70800 242000 (2019) 40800 (2023) 94000 41900 45500 49700 51700 83100 110000 143000 189000 234000
2026-05-02 16:30 15.88 71200 242000 (2019) 40800 (2023) 94000 41900 45500 49700 51700 83100 110000 143000 189000 234000
2026-05-02 15:30 15.93 71600 242000 (2019) 40800 (2023) 94000 41900 45500 49700 51700 83100 110000 143000 189000 234000
2026-05-02 14:30 15.97 71900 242000 (2019) 40800 (2023) 94000 41900 45500 49700 51700 83100 110000 143000 189000 234000
2026-05-02 13:30 16.02 72200 242000 (2019) 40800 (2023) 94000 41900 45500 49700 51700 83100 110000 143000 189000 234000
2026-05-02 12:30 16.08 72700 242000 (2019) 40800 (2023) 94000 41900 45500 49700 51700 83100 110000 143000 189000 234000
2026-05-02 11:30 16.10 72800 242000 (2019) 40800 (2023) 94000 41900 45500 49700 51700 83100 110000 143000 189000 234000
2026-05-02 10:30 16.21 73700 242000 (2019) 40800 (2023) 94000 41900 45500 49700 51700 83100 110000 143000 189000 234000
2026-05-02 09:30 16.28 74200 242000 (2019) 40800 (2023) 94000 41900 45500 49700 51700 83100 110000 143000 189000 234000
2026-05-02 08:30 16.33 74600 242000 (2019) 40800 (2023) 94000 41900 45500 49700 51700 83100 110000 143000 189000 234000
2026-05-02 07:30 16.40 75100 242000 (2019) 40800 (2023) 94000 41900 45500 49700 51700 83100 110000 143000 189000 234000
2026-05-02 06:30 16.50 75900 242000 (2019) 40800 (2023) 94000 41900 45500 49700 51700 83100 110000 143000 189000 234000
2026-05-02 05:30 16.56 76400 242000 (2019) 40800 (2023) 94000 41900 45500 49700 51700 83100 110000 143000 189000 234000
2026-05-02 04:30 16.64 77000 242000 (2019) 40800 (2023) 94000 41900 45500 49700 51700 83100 110000 143000 189000 234000
2026-05-02 03:30 16.69 77400 242000 (2019) 40800 (2023) 94000 41900 45500 49700 51700 83100 110000 143000 189000 234000
2026-05-02 02:30 16.82 78400 242000 (2019) 40800 (2023) 94000 41900 45500 49700 51700 83100 110000 143000 189000 234000
2026-05-02 01:30 16.90 79100 242000 (2019) 40800 (2023) 94000 41900 45500 49700 51700 83100 110000 143000 189000 234000
2026-05-02 00:30 16.99 79800 242000 (2019) 40800 (2023) 94000 41900 45500 49700 51700 83100 110000 143000 189000 234000
2026-05-01 23:30 17.06 80400 242000 (2019) 40800 (2023) 94000 41900 45500 49700 51700 83100 110000 143000 189000 234000

A total of 83 rows are displayed for years 2001 through 2024.